This is the latest recevied weather packets stored in our database for station/object N0NAI-13. If no packets are shown the sender has not sent any weather packets the latest 10 day(s).
| Time | Temp. | Humidity | Pressure | Rain* | Wind** | Luminosity | Snow |
|---|---|---|---|---|---|---|---|
| 1777615525 | -1.11° C | 92% | 1018.9 hPa | 0 mm | - | - | - |
| 1777614928 | -0.56° C | 92% | 1019.1 hPa | 0 mm | - | - | - |
| 1777614331 | -0.56° C | 89% | 1019 hPa | 0 mm | - | - | - |
| 1777613716 | 0° C | 89% | 1018.9 hPa | 0 mm | - | - | - |
| 1777613119 | 0° C | 89% | 1019 hPa | 0 mm | - | - | - |
| 1777612522 | 0° C | 87% | 1019 hPa | 0 mm | - | - | - |
| 1777611925 | 0.56° C | 86% | 1019 hPa | 0 mm | - | - | - |
| 1777611322 | 0.56° C | 86% | 1018.9 hPa | 0 mm | - | - | - |
| 1777610718 | 1.11° C | 86% | 1018.9 hPa | 0 mm | - | - | - |
| 1777610132 | 0.56° C | 85% | 1018.9 hPa | 0 mm | - | - | - |
| 1777609517 | 0.56° C | 85% | 1018.8 hPa | 0 mm | - | - | - |
| 1777608920 | 0.56° C | 84% | 1019 hPa | 0 mm | - | - | - |
| 1777608323 | 1.11° C | 82% | 1019 hPa | 0 mm | - | - | - |
| 1777607726 | 1.11° C | 82% | 1018.8 hPa | 0 mm | - | - | - |
| 1777607129 | 1.67° C | 82% | 1018.9 hPa | 0 mm | - | - | - |
| 1777606531 | 1.67° C | 80% | 1018.9 hPa | 0 mm | - | - | - |
| 1777605916 | 1.67° C | 79% | 1019 hPa | 0 mm | - | - | - |
| 1777605319 | 2.22° C | 76% | 1019.1 hPa | 0 mm | - | - | - |
| 1777604721 | 2.22° C | 76% | 1018.9 hPa | 0 mm | - | - | - |
| 1777604124 | 2.78° C | 75% | 1019 hPa | 0 mm | - | - | - |
| 1777603527 | 2.78° C | 73% | 1019 hPa | 0 mm | - | - | - |
| 1777602930 | 3.33° C | 72% | 1019 hPa | 0 mm | - | - | - |
| 1777602333 | 3.33° C | 71% | 1018.9 hPa | 0 mm | - | - | - |
| 1777601718 | 3.89° C | 70% | 1018.8 hPa | 0 mm | - | - | - |
| 1777601121 | 4.44° C | 69% | 1018.6 hPa | 0 mm | - | - | - |
* Rain latest hour (hover to see other rain measurements)
** Current wind speed in m/s (hover to see current wind gust speed)